Tracking 19706 objects as of 15-Jun-2019
HD Live streaming from Space Station
objects crossing your sky now

CZ-4 DEB

Track CZ-4 DEB now!
10-day predictions


NORAD ID: 26118
Int'l Code: 1999-057E
Perigee: 670.4 km
Apogee: 1,109.0 km
Inclination: 99.2 °
Period: 102.6 minutes
Semi major axis: 7260 km
RCS: 0.1637 m2 (medium)
Launch date: October 14, 1999
Source: People's Republic of China (PRC)
Launch site: Taiyaun Space Center, China (TSC)

Note: This is SATELLITE DEBRIS
aabbcc
Your satellite tracking list
Your tracking list is empty




NASA's NSSDC Master Catalog

Two Line Element Set (TLE):
1 26118U 99057E   19165.92721552 -.00000086 +00000-0 -14350-4 0  9996
2 26118 099.1731 143.3712 0302024 256.2650 100.4732 14.03247639982272
Source of the keplerian elements: AFSPC